Location: Gniazdowice
(50.2124°N, 20.2673°E)
Time: 22:14:17
(UTC+00:00)

Meteor 1-28 Rocket - Pass Details

Date: 12 August 2024
Orbit: 468 x 483 km, 97.5° (Epoch: 08 September)

Event Time Altitude Azimuth Distance (km) Brightness Sun altitude
Exits shadow 01:51:03 22° 211° (SSW) 1,121 4.3 -13.1°
Maximum altitude 01:52:49 35° 262° (W) 806 3.7 -12.9°
Drops below altitude 10° 01:56:10 10° 330° (NNW) 1,679 6.0 -12.5°
Sets 01:58:22 0° 340° (NNW) 2,562 7.0 -12.2°
